SPACEBEE-21 (46300 NORAD) Tracking and Keplerian Element Data

This shows tracking and keplerian element data for the satellite.

Feedback or suggestion? Click here.




ElementValue
Catalog46300
NameSPACEBEE-21
Epoch Orbit297
Epoch Day267.48012017
Epoch Year2020
RAAN340.2544
Inclination97.5182
Eccentricity0.0001498
Argument of Perigee131.0041
Mean Anonmoly229.1319
Mean Motion15.10636279
Decay Rate1.495E-05
L11 46300U 20061AE 20267.48012017 .00001495 00000-0 94272-4 0 9999
L22 46300 97.5182 340.2544 0001498 131.0041 229.1319 15.10636279 2976

Live tracking and technical data element details for SPACEBEE-21 (NORAD 46300). SPACEBEE-21 can be tracked NOW for your location showing map with azimuth and elevation plus other details from your city location.

Track the satellite on the map from your city or location and see movement details for azimuth, elevation, latitude, longitude, range, height, and movement on the map or in text.







IsCatalogInMostPopularTable: catalog: 46300, numindb: 1
Update: records affected: 1



GetName: 46300 SPACEBEE-21

Hit Count: updated at: Thu, 24 Sep 2020 18:03:50 GMT